7 * 24
多渠道服务支持
MOLNIYA 1-87(闪电1-87)是独联体(CIS)于1993年12月22日发射的通信卫星,隶属于苏联/俄罗斯经典的“闪电”(Molniya)系列。它运行在专为高纬度设计的闪电型高椭圆轨道,轨道周期约12小时,能在北半球高纬度区域长时间驻留,主要承担军事通信与广播电视传输任务,具备抗干扰特性,是当时俄罗斯空间通信体系的重要组成部分。
俄罗斯(独联体)
(CIS)
| 数据来源 | 国际轨道数据 |
| 星历时间: | 2026-09-10T06:14:29+0800 1天前 查看轨道信息 |
| 半长轴: | 26360.165km |
| 偏心率: | 0.674829 |
| 轨道倾角: | 64.840° |
| 近地点辐角 | 268.282° |
| 升交点赤经 | 274.317° |
| 平近点角 | 19.728° |
| 近地点: | 2193.424km |
| 远地点: | 37770.632km |
| 周期: | 709.875分钟 |
| 每日圈数: | 2.028526 |